User: anonymous   Login
Location: Unspecified
(0.0000°N, 0.0000°E)
Time: 22:15:38
(UTC+00:00)
Language:

OPTUS D1 - Orbit

View from above orbital plane
View from above orbital plane
View from above satellite
View from above satellite

Ground track
Ground track

The orbit data is extracted from the following two-line orbital elements,

1 29495U 06043B   15244.35786757 -.00000138  00000-0  00000+0 0  9998
2 29495   0.0075 287.8155 0003336 243.9713  97.2332  1.00269797 32612
Epoch (UTC): 01 September 2015 08:35:19
Eccentricity: 0.0003336
inclination: 0.0075°
perigee height: 35773 km
apogee height: 35801 km
right ascension of ascending node: 287.8155°
argument of perigee: 243.9713°
revolutions per day: 1.00269797
mean anomaly at epoch: 97.2332°
orbit number at epoch: 3261

The dashed part of the orbit path shows where the satellite is in the earth's shadow,  

DLR